TimeCST,TemperatureF,Dew PointF,Humidity,Sea Level PressureIn,VisibilityMPH,Wind Direction,Wind SpeedMPH,Gust SpeedMPH,PrecipitationIn,Events,Conditions,WindDirDegrees,DateUTC
12:55 AM,34.9,31.6,88,30.34,10.0,North,5.8,-,N/A,,Mostly Cloudy,350,2013-01-04 06:55:00
1:55 AM,35.1,31.1,85,30.34,10.0,North,3.5,-,N/A,,Mostly Cloudy,350,2013-01-04 07:55:00
2:55 AM,34.3,30.4,85,30.33,10.0,NNW,4.6,-,N/A,,Partly Cloudy,340,2013-01-04 08:55:00
3:55 AM,34.3,30.6,86,30.33,10.0,North,4.6,-,N/A,,Mostly Cloudy,350,2013-01-04 09:55:00
4:55 AM,33.4,29.7,86,30.33,10.0,North,5.8,-,N/A,,Partly Cloudy,350,2013-01-04 10:55:00
5:55 AM,32.9,29.3,87,30.35,10.0,North,5.8,-,N/A,,Clear,350,2013-01-04 11:55:00
6:55 AM,32.0,28.6,87,30.37,10.0,Calm,Calm,-,N/A,,Clear,0,2013-01-04 12:55:00
7:55 AM,36.0,30.0,79,30.40,10.0,North,4.6,-,N/A,,Clear,360,2013-01-04 13:55:00
8:55 AM,40.6,30.9,68,30.40,10.0,NNE,9.2,-,N/A,,Mostly Cloudy,20,2013-01-04 14:55:00
9:58 AM,43.5,30.6,60,30.40,10.0,NNE,11.5,-,N/A,,Mostly Cloudy,20,2013-01-04 15:58:00
10:55 AM,46.9,31.8,56,30.40,10.0,North,9.2,-,N/A,,Mostly Cloudy,10,2013-01-04 16:55:00
11:57 AM,50.7,29.8,45,30.38,10.0,NNE,9.2,-,N/A,,Mostly Cloudy,20,2013-01-04 17:57:00
12:55 PM,53.2,31.8,44,30.35,10.0,North,9.2,-,N/A,,Mostly Cloudy,360,2013-01-04 18:55:00
1:55 PM,54.9,29.3,38,30.33,10.0,North,11.5,-,N/A,,Mostly Cloudy,350,2013-01-04 19:55:00
2:55 PM,54.9,29.5,38,30.32,10.0,NNE,9.2,-,N/A,,Mostly Cloudy,30,2013-01-04 20:55:00
3:55 PM,54.1,31.8,43,30.34,10.0,North,5.8,-,N/A,,Mostly Cloudy,10,2013-01-04 21:55:00
4:55 PM,50.7,33.4,52,30.34,10.0,Calm,Calm,-,N/A,,Mostly Cloudy,0,2013-01-04 22:55:00
5:55 PM,44.4,38.5,80,30.36,10.0,Calm,Calm,-,N/A,,Mostly Cloudy,0,2013-01-04 23:55:00
6:55 PM,44.8,35.4,70,30.38,10.0,NNW,3.5,-,N/A,,Mostly Cloudy,340,2013-01-05 00:55:00
7:55 PM,43.2,36.3,77,30.39,10.0,NNW,3.5,-,N/A,,Mostly Cloudy,330,2013-01-05 01:55:00
8:55 PM,40.5,35.8,83,30.38,10.0,North,3.5,-,N/A,,Mostly Cloudy,360,2013-01-05 02:55:00
9:55 PM,39.9,34.7,82,30.38,10.0,Calm,Calm,-,N/A,,Mostly Cloudy,0,2013-01-05 03:55:00
10:55 PM,37.9,35.4,91,30.37,10.0,NNW,4.6,-,N/A,,Mostly Cloudy,340,2013-01-05 04:55:00
11:55 PM,37.4,34.9,91,30.35,10.0,North,4.6,-,N/A,,Mostly Cloudy,350,2013-01-05 05:55:00